Regional Weather Roundup
Issued by NWS San Angelo, TX

Home | Current Version | Previous Version | Text Only | Print | Product List | Glossary On
Versions: 1 2 3 4 5 6 7 8 9 10 11 12 13 14 15 16 17 18 19 20 21 22 23 24 25 26 27 28 29 30 31 32 33 34 35 36 37 38 39 40 41 42 43 44 45 46 47 48 49 50
000
ASUS44 KSJT 190810
RWRSJT
WEST CENTRAL TEXAS REGIONAL WEATHER ROUNDUP
NATIONAL WEATHER SERVICE SAN ANGELO TX
200 AM CST FRI JAN 19 2018

NOTE: "FAIR" INDICATES FEW OR NO CLOUDS BELOW 12,000 FEET WITH NO
SIGNIFICANT WEATHER AND/OR OBSTRUCTIONS TO VISIBILITY.

TXZ049-054-064>066-071>073-076>078-098-099-113-114-127-128-139-140-
154-155-168>170-190900
...LOCATIONS ACROSS WEST CENTRAL TEXAS...

CITY           SKY/WX    TMP DP  RH WIND       PRES   REMARKS
SAN ANGELO     CLEAR     34  21  59 SW9       30.21F WCI  27
ABILENE        CLEAR     33  21  61 S8        30.17F WCI  26
DYESS AFB      CLEAR     35  18  50 S8        30.16F WCI  29
JUNCTION       CLOUDY    44  38  79 SW8       30.23F WCI  39
SWEETWATER     CLOUDY    32  17  52 S12       30.17F WCI  23
BROWNWOOD      CLOUDY    37  30  75 CALM      30.23F
COLEMAN        SUNNY     33  27  79 SW3       30.21F
SONORA         CLEAR     30  21  69 CALM      30.27F
OZONA          FAIR      28  21  74 SW3       30.26S
BRADY          NOT AVBL
$$

TEXAS PANHANDLE/OKLAHOMA PANHANDLE

CITY           SKY/WX    TMP DP  RH WIND       PRES   REMARKS
AMARILLO       CLOUDY    28  10  46 SW15      30.00F WCI  16
BORGER         CLOUDY    39  11  31 W7        29.99F WCI  34
CANADIAN       CLOUDY    27  16  63 CALM      30.01F
DALHART        MOCLDY    20   8  60 SW10      29.98F WCI   9
DUMAS          CLOUDY    33  10  38 SW15      29.97F WCI  23
GUYMON         NOT AVBL
HEREFORD       CLOUDY    22  11  61 MISG      30.04S
PAMPA          CLOUDY    35  12  38 SW13      30.00F WCI  26
PERRYTON       CLOUDY    32  14  48 SW8       29.96F WCI  25
$$

SOUTHERN PANHANDLE/SOUTH PLAINS/ROLLING PLAINS

CITY           SKY/WX    TMP DP  RH WIND       PRES   REMARKS
LUBBOCK        CLOUDY    30  16  56 SW12      30.08F WCI  20
SNYDER         CLOUDY    25  15  64 SW5       30.16S WCI  19
CHILDRESS      CLOUDY    28  16  60 S8        30.08F WCI  20
SEMINOLE       CLOUDY    26  14  61 W6        30.12F WCI  19
$$

PERMIAN BASIN

CITY           SKY/WX    TMP DP  RH WIND       PRES   REMARKS
MIDLAND        CLOUDY    31  16  54 S8        30.14F WCI  23
ODESSA         CLOUDY    32  18  56 S12       30.13F WCI  23
WINK           CLOUDY    28  16  60 SE8       30.12F WCI  20
$$

FAR WEST/SOUTHWEST MOUNTAINS/TRANS PECOS

CITY           SKY/WX    TMP DP  RH WIND       PRES   REMARKS
ALPINE         CLOUDY    41  19  40 CALM      30.23S
DRYDEN           N/A    N/A N/A N/A N3        30.21F
EL PASO        PTCLDY    35  16  45 SE3       30.17F
FORT STOCKTON  CLEAR     39  20  46 SW13      30.14F WCI  31
GUADALUPE PASS CLEAR     35  15  44 SW16      30.15F WCI  25
MARFA          CLOUDY    20  12  71 MISG        N/A
PECOS          CLOUDY    23  11  60 SE3       30.15S
$$

DALLAS/FORT WORTH METROPLEX

CITY           SKY/WX    TMP DP  RH WIND       PRES   REMARKS
DFW AIRPORT    MOCLDY    39  19  44 S10       30.25F WCI  32
FTW MEACHAM    PTCLDY    32  19  58 SE6       30.25F WCI  26
DAL-EXECUTIVE  CLOUDY    37  19  48 S9        30.27F WCI  30
GRAND PRAIRIE  CLOUDY    37  19  49 S5        30.29F WCI  33
ADDISON        CLOUDY    38  18  43 S10       30.29S WCI  31
MESQUITE       CLOUDY    36  19  51 S8        30.30S WCI  29
LANCASTER      CLOUDY    36  19  49 S3        30.31S
$$

NORTH CENTRAL TEXAS

CITY           SKY/WX    TMP DP  RH WIND       PRES   REMARKS
SHRMAN/DENISON CLOUDY    28  16  61 S8        30.26S WCI  19
GAINESVILLE    CLOUDY    26  15  60 S6        30.26S WCI  20
BRIDGEPORT     MOSUNNY   30  16  57 CALM      30.24F
DENTON         CLOUDY    30  17  58 S5        30.25F WCI  25
WAXAHACHIE     CLOUDY    36  22  56 S6        30.30F WCI  31
GRANBURY       MOSUNNY   29  19  65 SE3       30.28S
$$

WESTERN NORTH TEXAS

CITY           SKY/WX    TMP DP  RH WIND       PRES   REMARKS
WICHITA FALLS  CLOUDY    27  15  61 S10       30.17F WCI  17
VERNON         CLOUDY    29  14  53 S9        30.14F WCI  21
BRECKENRIDGE   CLOUDY    37  29  72 S10       30.19F WCI  30
COMANCHE       CLOUDY    39  29  67 S9        30.22F WCI  33
$$

CENTRAL AND SOUTH CENTRAL TEXAS

CITY           SKY/WX    TMP DP  RH WIND       PRES   REMARKS
AUSTIN/BERGSTM CLOUDY    40  25  55 S7        30.32F WCI  35
WACO           CLOUDY    39  21  48 S13       30.29F WCI  31
HILLSBORO      NOT AVBL
TEMPLE         CLOUDY    37  21  52 S14       30.29F WCI  28
KILLEEN-GRAY   CLOUDY    37  20  48 SE12      30.25F WCI  30
FORT HOOD      CLOUDY    39  18  43 S12       30.24F WCI  32
GEORGETOWN     CLOUDY    39  22  50 SE3       30.32F
LAGO VISTA     CLOUDY    39  20  46 MISG      30.29F
SAN MARCOS     CLOUDY    40  22  48 S6        30.33F WCI  36
NEW BRAUNFELS  CLOUDY    41  21  44 SW7       30.31F WCI  36
RANDOLPH AFB   CLOUDY    42  18  38 SW5       30.32F WCI  39
SAN ANTONIO    CLOUDY    41  26  55 SW8       30.33S WCI  36
STINSON        CLOUDY    42  28  57 SW6       30.32F WCI  38
PLEASANTON     NOT AVBL
LA GRANGE      NOT AVBL
GIDDINGS       CLOUDY   N/A N/A N/A CALM      30.35S
$$

EAST TEXAS

CITY           SKY/WX    TMP DP  RH WIND       PRES   REMARKS
PARIS          CLOUDY    29  20  69 S7        30.29F WCI  22
CLARKSVILLE    NOT AVBL
TYLER          CLOUDY    38  18  44 S8        30.32S WCI  32
LONGVIEW       CLOUDY    39  22  50 S5        30.33F WCI  36
PALESTINE      CLOUDY    38  14  37 SE7       30.34F WCI  33
NACOGDOCHES    CLOUDY    38  19  46 S3        30.35F
$$

TEXAS HILL COUNTRY AND EDWARDS PLATEAU

CITY           SKY/WX    TMP DP  RH WIND       PRES   REMARKS
LLANO          CLOUDY    43  32  65 CALM      30.30F
HORSESHOE BAY  CLOUDY    40  24  51 SE3       30.28F
KERRVILLE      CLOUDY    36  33  88 S6        30.29F WCI  31
FREDERICKSBRG  CLOUDY    37  33  85 SW8       30.27F WCI  30
ROCKSPRINGS      N/A     37  37 100 S12       30.28F WCI  30
HONDO          CLOUDY    40  34  79 NW30      30.33F WCI  28
UVALDE         CLOUDY    37  34  88 SE6       30.33F WCI  33
DEL RIO        CLEAR     33  26  75 E6        30.30F WCI  28
$$

SOUTHEAST TEXAS

CITY           SKY/WX    TMP DP  RH WIND       PRES   REMARKS
COLLEGE STN    CLOUDY    37  21  52 S5        30.35F WCI  33
CALDWELL       CLOUDY    37  23  59 S6        30.34F WCI  32
CROCKETT       CLOUDY    37  18  44 CALM      30.37S
BRENHAM        CLOUDY    39  23  53 CALM      30.36S
HUNTSVILLE     CLOUDY    38  14  37 S5        30.33F WCI  34
CONROE         CLOUDY    37  23  56 CALM      30.34F
HOUSTON BUSH   MOCLDY    36  25  64 SE3       30.35F
HOUSTON HOBBY  MOCLDY    37  28  70 NE5       30.35F WCI  33
PERLAND        CLOUDY    38  30  73 NE3       30.36F
WHARTON        CLOUDY    37  32  79 CALM      30.34F
$$

THE UPPER TEXAS COAST

CITY           SKY/WX    TMP DP  RH WIND       PRES   REMARKS
ORANGE         PTSUNNY   35  28  75 CALM      30.39F
PORT ARTHUR    CLOUDY    37  29  72 CALM      30.37F
GALVESTON      MOCLDY    41  32  70 NE8       30.35F WCI  36
ANGLETON       CLOUDY    40  30  67 NE6       30.34F WCI  36
BAY CITY       CLOUDY    41  36  81 E6        30.33F WCI  37
$$

TEXAS COASTAL BEND, RIO GRANDE PLAINS DEEP SOUTH TEXAS

CITY           SKY/WX    TMP DP  RH WIND       PRES   REMARKS
VICTORIA       CLOUDY    41  27  57 N5        30.33F WCI  38
BEEVILLE       LGT RAIN  41  29  62 N5        30.32F WCI  38
ROCKPORT       CLOUDY    43  34  70 NE8       30.30F WCI  38
PORT ARANSAS   NOT AVBL
PORT LAVACA    CLOUDY    40  33  74 NE7       30.32F WCI  36
CORPUS CHRISTI CLOUDY    43  30  60 N9        30.30F WCI  38
KINGSVILLE NAS CLOUDY    43  30  60 N10       30.30F WCI  37
COTULLA        CLOUDY    41  30  65 NW3       30.33F
LAREDO         CLOUDY    41  31  67 NE6       30.32F WCI  37
BROWNSVILLE    LGT RAIN  43  42  97 NW10      30.28F WCI  37
PORT ISABEL    LGT RAIN  43  43 100 NW12      30.26F FOG     WCI  37
HEBBRONVILLE   CLOUDY    37  36  94 N5        30.30F FOG     WCI  34
MCALLEN        CLOUDY    42  40  92 NW8       30.31F FOG     WCI  37
WESLACO        DRIZZLE   40  39  97 N7        30.29F WCI  35
FALFURRIAS     CLOUDY    41  37  83 CALM      30.30F
EDINBURG       DRIZZLE   42  40  94 N6        30.30F WCI  38
$$




USA.gov is the U.S. government's official web portal to all federal, state and local government web resources and services.